User: anonymous   Login
Location: Unspecified
(0.0000°N, 0.0000°E)
Time: 15:03:19
(UTC+01:00)
Language:

Resurs 1-3 - Orbit

View from above orbital plane
View from above orbital plane
View from above satellite
View from above satellite

Ground track
Ground track

The orbit data is extracted from the following two-line orbital elements,

1 23342U 94074A   16343.19241758  .00000080  00000-0  18023-4 0  9998
2 23342  98.1026  14.2559 0001474  67.5847 292.5519 14.79225102189544
Epoch (UTC): 08 December 2016 04:37:04
Eccentricity: 0.0001474
inclination: 98.1026°
perigee height: 631 km
apogee height: 633 km
right ascension of ascending node: 14.2559°
argument of perigee: 67.5847°
revolutions per day: 14.79225102
mean anomaly at epoch: 292.5519°
orbit number at epoch: 18954

The dashed part of the orbit path shows where the satellite is in the earth's shadow,  

DLR